Flag for Switzerland Weather past 2 weeks in Onex, Geneva, Switzerland

Now
73 °F

Sunny.


Feels Like: 77 °F
Forecast: 57 / 73 °F
Wind: 5 mph from Northeast

Location: Geneva Cointrin Airport

Current Time: Jul 31, 2015 at 7:43:47 PM

Latest Report: Jul 31, 2015 at 7:20 PM


Visibility: 10 mi

Pressure: 29.89 "Hg

Humidity: 38%

Dew point: 46 °F

Location of OnexLocation

Historic Weather in Onex — Graph

°F

Onex temperature yesterday

Maximum temperature yesterday: 73 °F (at 6:50 PM)
Minimum temperature yesterday: 52 °F (at 5:50 AM)
Average temperature yesterday: 64 °F

Past Weeks' High & Low Weather Summary

 TemperatureHumidityPressure
High99 °F (Jul 16, 6:20 PM)100% (Jul 22, 8:50 PM)30.21 "Hg (Jul 22, 8:50 PM)
Low52 °F (Jul 30, 5:50 AM)13% (Jul 16, 6:50 PM)29.74 "Hg (Jul 24, 5:20 PM)
Average74 °F55%29.99 "Hg
* Reported Jul 16 6:20 PM — Jul 31 6:20 PM, Onex, Weather by CustomWeather, © 2015

Note: Actual official high and low records may vary slightly from our data, if they occured in-between our weather recording intervals... More about our weather records

Advertising

Onex weather history for previous 24 hours

 ConditionsComfort  
Time TempWeatherWind HumidityBarometerVisibility
6:20 PM
Fri, Jul 31
73 °FSunny.1 mph36%29.92 "Hg10 mi
5:50 PM73 °FSunny.2 mph36%29.92 "Hg10 mi
5:20 PM75 °FPassing clouds.5 mph31%29.92 "HgN/A
4:50 PM73 °FPassing clouds.6 mph33%29.92 "HgN/A
4:20 PM73 °FPassing clouds.7 mph36%29.92 "HgN/A
3:50 PM73 °FPassing clouds.8 mph36%29.92 "HgN/A
3:20 PM73 °FSunny.10 mph38%29.92 "Hg10 mi
2:50 PM73 °FPassing clouds.8 mph36%29.95 "HgN/A
2:20 PM72 °FSunny.10 mph38%29.95 "Hg10 mi
1:50 PM72 °FPassing clouds.8 mph38%29.95 "HgN/A
1:20 PM72 °FPassing clouds.9 mph41%29.95 "HgN/A
12:50 PM70 °FPartly sunny.9 mph43%29.98 "HgN/A
12:20 PM68 °FSunny.13 mph46%29.98 "Hg10 mi
11:50 AM68 °FPassing clouds.15 mph46%29.98 "HgN/A
11:20 AM66 °FSunny.15 mph46%29.98 "Hg10 mi
10:50 AM66 °FSunny.14 mph46%29.98 "Hg10 mi
10:20 AM64 °FSunny.14 mph49%29.98 "Hg10 mi
9:20 AM63 °FSunny.15 mph52%30.01 "Hg10 mi
8:50 AM63 °FSunny.15 mph52%30.01 "Hg10 mi
8:20 AM61 °FSunny.16 mph55%30.01 "Hg10 mi
7:50 AM61 °FSunny.14 mph55%30.01 "Hg10 mi
7:20 AM59 °FSunny.9 mph59%30.01 "Hg10 mi
6:50 AM57 °FPassing clouds.7 mph63%30.01 "HgN/A
6:20 AM57 °FPassing clouds.6 mph63%30.01 "HgN/A
5:50 AM52 °FClear.1 mph72%30.01 "Hg10 mi
5:20 AM52 °FClear.2 mph72%30.01 "Hg10 mi
4:50 AM52 °FClear.1 mph67%30.01 "Hg10 mi
4:20 AM52 °FClear.3 mph67%30.01 "Hg10 mi
3:50 AM52 °FClear.1 mph67%30.01 "Hg10 mi
2:50 AM54 °FClear.3 mph67%30.01 "Hg10 mi
2:20 AM55 °FClear.No wind59%30.01 "Hg10 mi
1:50 AM55 °FClear.1 mph63%30.01 "Hg10 mi
1:20 AM55 °FPassing clouds.3 mph63%30.04 "HgN/A
12:50 AM59 °FPassing clouds.3 mph59%30.04 "HgN/A
11:20 PM
Thu, Jul 30
61 °FClear.1 mph52%30.04 "Hg10 mi
10:50 PM63 °FClear.2 mph49%30.04 "Hg10 mi
10:20 PM63 °FClear.3 mph49%30.04 "Hg10 mi
9:50 PM64 °FSunny.2 mph43%30.01 "Hg10 mi
9:20 PM66 °FSunny.3 mph40%30.01 "Hg10 mi
8:50 PM68 °FPassing clouds.6 mph38%30.01 "HgN/A
8:20 PM70 °FPartly sunny.5 mph35%30.01 "HgN/A
7:50 PM72 °FPartly sunny.7 mph33%29.98 "HgN/A
7:20 PM72 °FPartly sunny.7 mph33%29.98 "HgN/A
Weather by CustomWeather, © 2015

See weather overviewHow to use our weather pages